Coeur d'Alene, ID

7:33 AM PDT on April 27, 2017 (GMT -0700)
Coeur D'Alene

Weather History for KCOE - September, 2013

Change the Weather History Date:

Saturday, September 28, 2013

  Actual Average Record
Temperature  
Mean Temperature 50 °F -  
Max Temperature 55 °F 66 °F 80 °F (2003)
Min Temperature 46 °F 40 °F 24 °F (1999)
Degree Days  
Heating Degree Days 14    
Moisture  
Dew Point 47 °F    
Average Humidity 87    
Maximum Humidity 94    
Minimum Humidity 72    
Precipitation  
Precipitation 0.43 in - - ()
Sea Level Pressure  
Sea Level Pressure 29.74 in    
Wind  
Wind Speed 10 mph (South)    
Max Wind Speed 21 mph    
Max Gust Speed 29 mph    
Visibility 10 miles    
Events      
Averages and records for this station are not official NWS values.
T = Trace of Precipitation, MM = Missing Value Source: NWS Daily Summary

Daily Weather History Graph

Daily Weather History Graph

Search for Another Location

Airport or City:

Trip Planner

Search our weather history database for the weather conditions in past years. The results will help you decide how hot, cold, wet, or windy it might be!

Date:

Astronomy

Sep. 28, 2013 Rise Set
Actual Time 6:42 AM PDT 6:32 PM PDT
Civil Twilight 6:11 AM PDT 7:02 PM PDT
Nautical Twilight 5:35 AM PDT 7:38 PM PDT
Astronomical Twilight 4:59 AM PDT 8:15 PM PDT
Moon 12:12 AM PDT (9/28) 3:14 PM PDT (9/28)
Length of Visible Light 12h 50m
Length of Day
11h 49m
Waning Crescent, 35% of the Moon is Illuminated
Sep 28
Waning Crescent
Oct 4
New
Oct 11
First Quarter
Oct 18
Full
Oct 26
Last Quarter

Hourly Weather History & Observations

Time (PDT) Temp. Windchill Dew Point Humidity Pressure Visibility Wind Dir Wind Speed Gust Speed Precip Events Conditions
12:15 AM 46.4 °F 42.9 °F 42.8 °F 87% 29.94 in 10.0 mi SSE 6.9 mph - N/A   Overcast
12:35 AM 46.4 °F 42.4 °F 42.8 °F 87% 29.93 in 10.0 mi SSE 8.1 mph - 0.01 in   Overcast
12:55 AM 46.4 °F 41.5 °F 42.8 °F 87% 29.92 in 10.0 mi SSE 10.4 mph - 0.01 in   Overcast
1:15 AM 46.4 °F 41.9 °F 42.8 °F 87% 29.92 in 10.0 mi SSE 9.2 mph - N/A   Overcast
1:35 AM 46.4 °F 42.9 °F 42.8 °F 87% 29.91 in 10.0 mi SSE 6.9 mph - N/A   Overcast
1:55 AM 46.4 °F 42.4 °F 42.8 °F 87% 29.91 in 10.0 mi SSE 8.1 mph - N/A   Overcast
2:15 AM 46.4 °F 42.4 °F 44.6 °F 93% 29.91 in 10.0 mi South 8.1 mph - N/A   Overcast
2:35 AM 46.4 °F 42.4 °F 44.6 °F 93% 29.90 in 10.0 mi South 8.1 mph - N/A   Overcast
2:55 AM 46.4 °F 42.4 °F 44.6 °F 93% 29.90 in 10.0 mi South 8.1 mph - N/A   Overcast
3:15 AM 46.4 °F 42.4 °F 44.6 °F 93% 29.89 in 10.0 mi South 8.1 mph - N/A   Overcast
3:35 AM 46.4 °F 42.9 °F 44.6 °F 93% 29.88 in 10.0 mi South 6.9 mph - N/A   Overcast
3:55 AM 46.4 °F 41.9 °F 44.6 °F 93% 29.89 in 10.0 mi South 9.2 mph - N/A   Overcast
4:15 AM 46.4 °F 43.5 °F 44.6 °F 93% 29.88 in 10.0 mi SSW 5.8 mph - N/A   Overcast
4:35 AM 46.4 °F 43.5 °F 42.8 °F 87% 29.87 in 10.0 mi South 5.8 mph - N/A   Mostly Cloudy
4:55 AM 46.4 °F 44.3 °F 44.6 °F 93% 29.87 in 10.0 mi South 4.6 mph - N/A   Overcast
5:15 AM 48.2 °F - 44.6 °F 87% 29.86 in 10.0 mi South 10.4 mph - N/A   Overcast
5:35 AM 48.2 °F - 44.6 °F 87% 29.86 in 10.0 mi South 9.2 mph - N/A   Overcast
5:55 AM 48.2 °F - 44.6 °F 87% 29.85 in 10.0 mi South 8.1 mph - N/A   Overcast
6:15 AM 48.2 °F - 44.6 °F 87% 29.85 in 10.0 mi South 9.2 mph - N/A   Overcast
6:35 AM 48.2 °F - 44.6 °F 87% 29.85 in 10.0 mi South 10.4 mph - N/A   Overcast
6:55 AM 48.2 °F - 46.4 °F 93% 29.84 in 10.0 mi South 8.1 mph - N/A   Overcast
7:15 AM 48.2 °F - 46.4 °F 93% 29.83 in 10.0 mi South 8.1 mph - 0.01 in   Overcast
7:35 AM 48.2 °F - 46.4 °F 93% 29.82 in 10.0 mi South 5.8 mph - 0.02 in   Overcast
7:55 AM 48.2 °F - 46.4 °F 93% 29.82 in 9.0 mi SSE 6.9 mph - 0.05 in   Overcast
8:15 AM 48.2 °F - 46.4 °F 93% 29.82 in 8.0 mi South 11.5 mph - 0.05 in   Mostly Cloudy
8:35 AM 48.2 °F - 46.4 °F 93% 29.81 in 9.0 mi South 10.4 mph - 0.07 in   Mostly Cloudy
8:55 AM 48.2 °F - 46.4 °F 93% 29.80 in 8.0 mi SSE 10.4 mph - 0.09 in   Overcast
9:15 AM 48.2 °F - 46.4 °F 93% 29.80 in 9.0 mi South 11.5 mph - 0.02 in   Overcast
9:35 AM 48.2 °F - 46.4 °F 93% 29.80 in 10.0 mi SSE 11.5 mph 17.3 mph 0.04 in   Overcast
9:55 AM 48.2 °F - 46.4 °F 93% 29.79 in 10.0 mi South 12.7 mph 20.7 mph 0.07 in   Overcast
10:15 AM 48.2 °F - 46.4 °F 93% 29.78 in 10.0 mi South 13.8 mph 17.3 mph 0.03 in   Overcast
10:35 AM 50.0 °F - 46.4 °F 87% 29.78 in 10.0 mi South 13.8 mph - 0.07 in   Overcast
10:55 AM 50.0 °F - 48.2 °F 94% 29.77 in 10.0 mi SSE 12.7 mph 17.3 mph 0.12 in   Overcast
11:15 AM 50.0 °F - 48.2 °F 94% 29.77 in 10.0 mi SSE 12.7 mph - 0.02 in   Overcast
11:35 AM 51.8 °F - 48.2 °F 88% 29.77 in 10.0 mi South 11.5 mph 20.7 mph 0.03 in   Overcast
11:55 AM 51.8 °F - 48.2 °F 88% 29.76 in 10.0 mi SSE 9.2 mph - 0.03 in   Overcast
12:15 PM 51.8 °F - 48.2 °F 88% 29.75 in 10.0 mi South 13.8 mph - N/A   Overcast
12:35 PM 51.8 °F - 48.2 °F 88% 29.74 in 10.0 mi South 12.7 mph - 0.01 in   Overcast
12:55 PM 51.8 °F - 48.2 °F 88% 29.74 in 10.0 mi South 10.4 mph - 0.02 in   Mostly Cloudy
1:15 PM 51.8 °F - 50.0 °F 94% 29.73 in 10.0 mi South 15.0 mph 21.9 mph N/A   Mostly Cloudy
1:35 PM 53.6 °F - 50.0 °F 88% 29.72 in 10.0 mi South 11.5 mph 19.6 mph N/A   Overcast
1:55 PM 53.6 °F - 50.0 °F 88% 29.72 in 10.0 mi South 11.5 mph 18.4 mph N/A   Overcast
2:15 PM 53.6 °F - 48.2 °F 82% 29.71 in 10.0 mi South 12.7 mph 21.9 mph N/A   Overcast
2:35 PM 53.6 °F - 48.2 °F 82% 29.71 in 10.0 mi South 18.4 mph 26.5 mph N/A   Overcast
2:55 PM 53.6 °F - 50.0 °F 88% 29.69 in 10.0 mi South 18.4 mph 25.3 mph N/A   Overcast
3:15 PM 53.6 °F - 50.0 °F 88% 29.70 in 10.0 mi South 16.1 mph 24.2 mph N/A   Overcast
3:35 PM 53.6 °F - 50.0 °F 88% 29.69 in 10.0 mi South 16.1 mph 25.3 mph N/A   Overcast
3:55 PM 53.6 °F - 50.0 °F 88% 29.69 in 10.0 mi South 17.3 mph 24.2 mph N/A   Overcast
4:15 PM 53.6 °F - 50.0 °F 88% 29.68 in 10.0 mi South 18.4 mph 23.0 mph N/A   Overcast
4:35 PM 53.6 °F - 50.0 °F 88% 29.67 in 10.0 mi South 18.4 mph - N/A   Overcast
4:55 PM 53.6 °F - 50.0 °F 88% 29.67 in 10.0 mi South 15.0 mph 24.2 mph N/A   Overcast
5:15 PM 53.6 °F - 50.0 °F 88% 29.66 in 10.0 mi SSE 16.1 mph 27.6 mph N/A   Overcast
5:35 PM 53.6 °F - 50.0 °F 88% 29.65 in 10.0 mi South 20.7 mph 25.3 mph N/A   Mostly Cloudy
5:55 PM 53.6 °F - 50.0 °F 88% 29.65 in 10.0 mi South 17.3 mph 28.8 mph N/A   Overcast
6:15 PM 53.6 °F - 50.0 °F 88% 29.65 in 10.0 mi South 16.1 mph 23.0 mph N/A   Overcast
6:35 PM 53.6 °F - 50.0 °F 88% 29.64 in 10.0 mi South 15.0 mph 20.7 mph N/A   Overcast
6:55 PM 53.6 °F - 50.0 °F 88% 29.64 in 10.0 mi SSE 8.1 mph - N/A   Overcast
7:15 PM 53.6 °F - 48.2 °F 82% 29.62 in 10.0 mi SSE 13.8 mph - N/A   Overcast
7:35 PM 55.4 °F - 48.2 °F 77% 29.61 in 10.0 mi SSE 16.1 mph 19.6 mph N/A   Overcast
7:55 PM 55.4 °F - 48.2 °F 77% 29.60 in 10.0 mi South 12.7 mph 18.4 mph N/A   Overcast
8:15 PM 55.4 °F - 48.2 °F 77% 29.58 in 10.0 mi SSE 18.4 mph 26.5 mph N/A   Overcast
8:35 PM 55.4 °F - 46.4 °F 72% 29.58 in 10.0 mi South 12.7 mph 19.6 mph N/A   Overcast
8:55 PM 55.4 °F - 48.2 °F 77% 29.56 in 10.0 mi South 16.1 mph 21.9 mph N/A   Overcast
9:15 PM 55.4 °F - 48.2 °F 77% 29.56 in 10.0 mi South 11.5 mph - N/A   Overcast
9:35 PM 53.6 °F - 48.2 °F 82% 29.56 in 10.0 mi South 9.2 mph - 0.01 in   Overcast
9:55 PM 53.6 °F - 48.2 °F 82% 29.54 in 10.0 mi South 6.9 mph - 0.01 in   Overcast
10:15 PM 53.6 °F - 48.2 °F 82% 29.52 in 10.0 mi South 15.0 mph 19.6 mph N/A   Overcast
10:35 PM 55.4 °F - 46.4 °F 72% 29.50 in 10.0 mi South 15.0 mph 19.6 mph N/A   Overcast
10:55 PM 55.4 °F - 46.4 °F 72% 29.51 in 9.0 mi South 15.0 mph 25.3 mph 0.02 in   Overcast
11:15 PM 53.6 °F - 48.2 °F 82% 29.49 in 10.0 mi South 15.0 mph 20.7 mph 0.01 in   Overcast
11:35 PM 53.6 °F - 48.2 °F 82% 29.50 in 10.0 mi South 12.7 mph - 0.01 in   Overcast
11:55 PM 53.6 °F - 48.2 °F 82% 29.50 in 10.0 mi South 15.0 mph 20.7 mph 0.01 in   Overcast